Time,TemperatureF,DewpointF,PressureIn,WindDirection,WindDirectionDegrees,WindSpeedMPH,WindSpeedGustMPH,Humidity,HourlyPrecipIn,Conditions,Clouds,dailyrainin,SoftwareType,DateUTC
2013-10-27 00:04:00,60.0,59.0,30.11,SSE,154,0.0,0.0,95,0.00,,,0.00,weatherlink.com 1.10,2013-10-27 05:04:00,
2013-10-27 00:19:00,59.7,58.0,30.10,SSE,153,0.0,0.0,95,0.00,,,0.00,weatherlink.com 1.10,2013-10-27 05:19:00,
2013-10-27 00:34:00,59.3,58.0,30.10,SSE,153,0.0,0.0,95,0.00,,,0.00,weatherlink.com 1.10,2013-10-27 05:34:00,
2013-10-27 00:49:00,58.7,57.0,30.10,SSE,154,0.0,0.0,95,0.00,,,0.00,weatherlink.com 1.10,2013-10-27 05:49:00,
2013-10-27 01:04:00,58.8,58.0,30.09,SSE,154,0.0,0.0,96,0.00,,,0.00,weatherlink.com 1.10,2013-10-27 06:04:00,
2013-10-27 01:19:00,58.9,58.0,30.09,SSE,158,0.0,0.0,96,0.00,,,0.00,weatherlink.com 1.10,2013-10-27 06:19:00,
2013-10-27 01:35:00,58.7,58.0,30.08,SSE,158,0.0,0.0,96,0.00,,,0.00,weatherlink.com 1.10,2013-10-27 06:35:00,
2013-10-27 01:50:00,58.7,58.0,30.08,SSE,158,0.0,0.0,96,0.00,,,0.00,weatherlink.com 1.10,2013-10-27 06:50:00,
2013-10-27 02:05:00,59.1,58.0,30.08,SSE,158,0.0,0.0,96,0.00,,,0.00,weatherlink.com 1.10,2013-10-27 07:05:00,
2013-10-27 02:20:00,59.0,58.0,30.08,SSE,158,0.0,0.0,96,0.00,,,0.00,weatherlink.com 1.10,2013-10-27 07:20:00,
2013-10-27 02:35:00,59.3,58.0,30.08,SSE,158,0.0,0.0,96,0.00,,,0.00,weatherlink.com 1.10,2013-10-27 07:35:00,
2013-10-27 02:50:00,58.5,57.0,30.07,SSE,158,0.0,0.0,95,0.00,,,0.00,weatherlink.com 1.10,2013-10-27 07:50:00,
2013-10-27 03:05:00,59.0,58.0,30.07,SSE,158,0.0,0.0,96,0.00,,,0.00,weatherlink.com 1.10,2013-10-27 08:05:00,
2013-10-27 03:20:00,59.5,58.0,30.07,SSE,158,0.0,0.0,96,0.00,,,0.00,weatherlink.com 1.10,2013-10-27 08:20:00,
2013-10-27 03:35:00,60.0,59.0,30.06,SSE,158,0.0,0.0,96,0.00,,,0.00,weatherlink.com 1.10,2013-10-27 08:35:00,
2013-10-27 03:50:00,60.6,60.0,30.07,ESE,105,0.0,0.0,96,0.00,,,0.00,weatherlink.com 1.10,2013-10-27 08:50:00,
2013-10-27 04:05:00,60.7,60.0,30.08,ESE,105,0.0,0.0,96,0.00,,,0.00,weatherlink.com 1.10,2013-10-27 09:05:00,
2013-10-27 04:20:00,61.4,60.0,30.08,East,99,0.0,0.0,96,0.00,,,0.00,weatherlink.com 1.10,2013-10-27 09:20:00,
2013-10-27 04:35:00,62.0,61.0,30.08,East,98,0.0,0.0,96,0.00,,,0.00,weatherlink.com 1.10,2013-10-27 09:35:00,
2013-10-27 04:50:00,62.1,61.0,30.07,East,99,0.0,0.0,96,0.00,,,0.00,weatherlink.com 1.10,2013-10-27 09:50:00,
2013-10-27 05:05:00,62.1,61.0,30.07,East,81,0.0,0.0,96,0.00,,,0.00,weatherlink.com 1.10,2013-10-27 10:05:00,
2013-10-27 05:20:00,62.1,61.0,30.07,East,79,0.0,0.0,96,0.00,,,0.00,weatherlink.com 1.10,2013-10-27 10:20:00,
2013-10-27 05:35:00,62.1,61.0,30.07,East,79,0.0,0.0,96,0.00,,,0.00,weatherlink.com 1.10,2013-10-27 10:35:00,
2013-10-27 05:50:00,62.0,61.0,30.07,ENE,71,0.0,0.0,95,0.00,,,0.00,weatherlink.com 1.10,2013-10-27 10:50:00,
2013-10-27 06:05:00,61.7,60.0,30.07,East,90,0.0,1.0,95,0.00,,,0.00,weatherlink.com 1.10,2013-10-27 11:05:00,
2013-10-27 06:20:00,61.4,60.0,30.08,East,86,0.0,0.0,95,0.00,,,0.00,weatherlink.com 1.10,2013-10-27 11:20:00,
2013-10-27 06:35:00,61.2,60.0,30.08,East,86,0.0,0.0,95,0.00,,,0.00,weatherlink.com 1.10,2013-10-27 11:35:00,
2013-10-27 06:50:00,61.0,60.0,30.08,ENE,70,0.0,1.0,95,0.00,,,0.00,weatherlink.com 1.10,2013-10-27 11:50:00,
2013-10-27 07:05:00,60.9,60.0,30.08,ENE,68,0.0,1.0,95,0.00,,,0.00,weatherlink.com 1.10,2013-10-27 12:05:00,
2013-10-27 07:20:00,60.8,59.0,30.07,East,79,2.0,4.0,95,0.00,,,0.00,weatherlink.com 1.10,2013-10-27 12:20:00,
2013-10-27 07:35:00,60.7,59.0,30.07,East,86,0.0,4.0,95,0.00,,,0.00,weatherlink.com 1.10,2013-10-27 12:35:00,
2013-10-27 07:50:00,60.7,59.0,30.07,East,85,0.0,4.0,95,0.00,,,0.00,weatherlink.com 1.10,2013-10-27 12:50:00,
2013-10-27 08:05:00,60.7,59.0,30.08,ENE,77,2.0,2.0,95,0.00,,,0.00,weatherlink.com 1.10,2013-10-27 13:05:00,
2013-10-27 08:20:00,60.9,60.0,30.09,ENE,77,1.0,2.0,95,0.00,,,0.00,weatherlink.com 1.10,2013-10-27 13:20:00,
2013-10-27 08:35:00,61.2,60.0,30.09,East,88,2.0,3.0,95,0.00,,,0.00,weatherlink.com 1.10,2013-10-27 13:35:00,
2013-10-27 08:50:00,61.3,60.0,30.09,East,80,0.0,3.0,95,0.00,,,0.00,weatherlink.com 1.10,2013-10-27 13:50:00,
2013-10-27 09:05:00,61.5,60.0,30.10,ESE,103,0.0,2.0,95,0.00,,,0.00,weatherlink.com 1.10,2013-10-27 14:05:00,
2013-10-27 09:20:00,61.9,61.0,30.10,ESE,103,1.0,1.0,95,0.00,,,0.00,weatherlink.com 1.10,2013-10-27 14:20:00,
2013-10-27 09:35:00,62.2,61.0,30.10,East,100,0.0,1.0,95,0.00,,,0.00,weatherlink.com 1.10,2013-10-27 14:35:00,
2013-10-27 09:50:00,62.8,61.0,30.10,East,100,0.0,1.0,95,0.01,,,0.01,weatherlink.com 1.10,2013-10-27 14:50:00,
2013-10-27 10:05:00,63.3,62.0,30.11,SSE,161,0.0,2.0,95,0.02,,,0.02,weatherlink.com 1.10,2013-10-27 15:05:00,
2013-10-27 10:20:00,63.6,62.0,30.11,SSE,153,0.0,0.0,95,0.05,,,0.05,weatherlink.com 1.10,2013-10-27 15:20:00,
2013-10-27 10:35:00,63.8,62.0,30.11,South,188,0.0,0.0,95,0.08,,,0.08,weatherlink.com 1.10,2013-10-27 15:35:00,
2013-10-27 10:50:00,64.3,63.0,30.10,SE,130,2.0,4.0,96,0.10,,,0.11,weatherlink.com 1.10,2013-10-27 15:50:00,
2013-10-27 11:05:00,64.9,64.0,30.08,SE,132,1.0,7.0,96,0.10,,,0.12,weatherlink.com 1.10,2013-10-27 16:05:00,
2013-10-27 11:20:00,66.0,65.0,30.06,SE,140,3.0,11.0,96,0.07,,,0.12,weatherlink.com 1.10,2013-10-27 16:20:00,
2013-10-27 11:35:00,66.6,66.0,30.04,SSW,193,4.0,12.0,96,0.04,,,0.12,weatherlink.com 1.10,2013-10-27 16:35:00,
2013-10-27 11:50:00,67.6,66.0,30.03,ESE,123,11.0,14.0,95,0.01,,,0.12,weatherlink.com 1.10,2013-10-27 16:50:00,
2013-10-27 12:05:00,68.6,67.0,30.03,SE,143,2.0,13.0,93,0.00,,,0.12,weatherlink.com 1.10,2013-10-27 17:05:00,
2013-10-27 12:21:00,69.3,67.0,30.03,South,174,8.0,10.0,92,0.00,,,0.12,weatherlink.com 1.10,2013-10-27 17:21:00,
2013-10-27 12:36:00,70.0,67.0,30.03,ESE,123,5.0,12.0,90,0.01,,,0.13,weatherlink.com 1.10,2013-10-27 17:36:00,
2013-10-27 12:51:00,71.2,68.0,30.03,SSE,166,6.0,9.0,89,0.01,,,0.13,weatherlink.com 1.10,2013-10-27 17:51:00,
2013-10-27 13:06:00,71.4,68.0,30.04,SSE,153,3.0,10.0,88,0.01,,,0.13,weatherlink.com 1.10,2013-10-27 18:06:00,
2013-10-27 13:21:00,71.5,68.0,30.03,South,191,1.0,7.0,88,0.01,,,0.13,weatherlink.com 1.10,2013-10-27 18:21:00,
2013-10-27 13:36:00,72.0,68.0,30.03,SSW,194,1.0,6.0,88,0.00,,,0.13,weatherlink.com 1.10,2013-10-27 18:36:00,
2013-10-27 13:51:00,72.7,69.0,30.03,SSE,166,1.0,6.0,87,0.00,,,0.13,weatherlink.com 1.10,2013-10-27 18:51:00,
2013-10-27 14:06:00,73.2,69.0,30.02,South,174,3.0,6.0,86,0.00,,,0.13,weatherlink.com 1.10,2013-10-27 19:06:00,
2013-10-27 14:21:00,73.7,69.0,30.02,South,179,1.0,5.0,85,0.00,,,0.13,weatherlink.com 1.10,2013-10-27 19:21:00,
2013-10-27 14:36:00,73.6,69.0,30.01,SSE,155,2.0,5.0,85,0.00,,,0.13,weatherlink.com 1.10,2013-10-27 19:36:00,
2013-10-27 14:51:00,73.5,70.0,30.02,SW,229,0.0,5.0,87,0.00,,,0.13,weatherlink.com 1.10,2013-10-27 19:51:00,
2013-10-27 15:06:00,74.3,70.0,30.02,SSW,205,5.0,5.0,85,0.01,,,0.14,weatherlink.com 1.10,2013-10-27 20:06:00,
2013-10-27 15:21:00,73.6,69.0,30.02,SE,125,0.0,3.0,84,0.01,,,0.14,weatherlink.com 1.10,2013-10-27 20:21:00,
2013-10-27 15:36:00,73.3,69.0,30.01,WNW,284,0.0,1.0,85,0.01,,,0.14,weatherlink.com 1.10,2013-10-27 20:36:00,
2013-10-27 15:51:00,73.5,70.0,30.02,WNW,302,0.0,1.0,87,0.01,,,0.14,weatherlink.com 1.10,2013-10-27 20:51:00,
2013-10-27 16:06:00,74.3,69.0,30.01,South,183,0.0,5.0,82,0.00,,,0.14,weatherlink.com 1.10,2013-10-27 21:06:00,
2013-10-27 16:21:00,73.7,68.0,30.00,SSE,151,0.0,4.0,82,0.00,,,0.14,weatherlink.com 1.10,2013-10-27 21:21:00,
2013-10-27 16:36:00,74.2,69.0,30.00,SSW,195,2.0,5.0,83,0.00,,,0.14,weatherlink.com 1.10,2013-10-27 21:36:00,
2013-10-27 16:51:00,74.5,69.0,30.00,SSE,147,2.0,9.0,82,0.00,,,0.14,weatherlink.com 1.10,2013-10-27 21:51:00,
2013-10-27 17:06:00,74.0,68.0,30.00,SE,134,0.0,8.0,82,0.00,,,0.14,weatherlink.com 1.10,2013-10-27 22:06:00,
2013-10-27 17:21:00,73.8,68.0,30.00,SSW,197,3.0,9.0,83,0.00,,,0.14,weatherlink.com 1.10,2013-10-27 22:21:00,
2013-10-27 17:36:00,73.1,68.0,30.00,SSW,197,0.0,7.0,85,0.00,,,0.14,weatherlink.com 1.10,2013-10-27 22:36:00,
2013-10-27 17:51:00,72.8,68.0,30.00,South,179,3.0,8.0,84,0.00,,,0.14,weatherlink.com 1.10,2013-10-27 22:51:00,
2013-10-27 18:06:00,72.3,68.0,30.00,South,174,2.0,5.0,85,0.00,,,0.14,weatherlink.com 1.10,2013-10-27 23:06:00,
2013-10-27 18:21:00,71.3,67.0,30.00,SSE,150,0.0,2.0,86,0.00,,,0.14,weatherlink.com 1.10,2013-10-27 23:21:00,
2013-10-27 18:36:00,70.5,67.0,30.00,South,188,0.0,1.0,87,0.00,,,0.14,weatherlink.com 1.10,2013-10-27 23:36:00,
2013-10-27 18:51:00,69.7,66.0,30.00,SSE,164,0.0,1.0,89,0.00,,,0.14,weatherlink.com 1.10,2013-10-27 23:51:00,
2013-10-27 19:06:00,68.9,66.0,30.00,SSE,164,0.0,0.0,90,0.00,,,0.14,weatherlink.com 1.10,2013-10-28 00:06:00,
2013-10-27 19:21:00,68.1,65.0,30.01,SSE,164,0.0,0.0,91,0.00,,,0.14,weatherlink.com 1.10,2013-10-28 00:21:00,
2013-10-27 19:36:00,67.1,65.0,30.01,SSE,163,0.0,0.0,92,0.00,,,0.14,weatherlink.com 1.10,2013-10-28 00:36:00,
2013-10-27 19:51:00,65.8,64.0,30.01,SSE,163,0.0,0.0,92,0.00,,,0.14,weatherlink.com 1.10,2013-10-28 00:51:00,
2013-10-27 20:06:00,65.2,64.0,30.02,SSE,164,0.0,0.0,94,0.00,,,0.14,weatherlink.com 1.10,2013-10-28 01:06:00,
2013-10-27 20:21:00,65.0,63.0,30.02,SSE,163,0.0,0.0,94,0.00,,,0.14,weatherlink.com 1.10,2013-10-28 01:21:00,
2013-10-27 20:36:00,64.7,63.0,30.02,SSE,164,0.0,0.0,94,0.00,,,0.14,weatherlink.com 1.10,2013-10-28 01:36:00,
2013-10-27 20:51:00,63.9,63.0,30.02,SSE,164,0.0,0.0,95,0.00,,,0.14,weatherlink.com 1.10,2013-10-28 01:51:00,
2013-10-27 21:06:00,63.4,62.0,30.03,SSE,163,0.0,0.0,95,0.00,,,0.14,weatherlink.com 1.10,2013-10-28 02:06:00,
2013-10-27 21:21:00,63.1,62.0,30.03,SSE,163,0.0,0.0,95,0.00,,,0.14,weatherlink.com 1.10,2013-10-28 02:21:00,
2013-10-27 21:36:00,62.9,62.0,30.03,SSE,163,0.0,0.0,95,0.00,,,0.14,weatherlink.com 1.10,2013-10-28 02:36:00,
2013-10-27 21:51:00,62.7,61.0,30.03,SSE,163,0.0,0.0,95,0.00,,,0.14,weatherlink.com 1.10,2013-10-28 02:51:00,
2013-10-27 22:06:00,62.1,61.0,30.03,SSE,163,0.0,0.0,95,0.00,,,0.14,weatherlink.com 1.10,2013-10-28 03:06:00,
2013-10-27 22:21:00,61.9,61.0,30.04,SSE,164,0.0,0.0,96,0.00,,,0.14,weatherlink.com 1.10,2013-10-28 03:21:00,
2013-10-27 22:37:00,61.6,61.0,30.04,SSE,163,0.0,0.0,96,0.00,,,0.14,weatherlink.com 1.10,2013-10-28 03:37:00,
2013-10-27 22:52:00,62.1,61.0,30.04,SSE,163,0.0,0.0,96,0.00,,,0.14,weatherlink.com 1.10,2013-10-28 03:52:00,
2013-10-27 23:07:00,61.6,61.0,30.04,SSE,164,0.0,0.0,96,0.00,,,0.14,weatherlink.com 1.10,2013-10-28 04:07:00,
2013-10-27 23:22:00,61.4,60.0,30.04,SSE,163,0.0,0.0,96,0.00,,,0.14,weatherlink.com 1.10,2013-10-28 04:22:00,
2013-10-27 23:37:00,61.4,60.0,30.04,SSE,163,0.0,0.0,96,0.00,,,0.14,weatherlink.com 1.10,2013-10-28 04:37:00,
2013-10-27 23:52:00,61.2,60.0,30.04,SSE,163,0.0,0.0,96,0.00,,,0.14,weatherlink.com 1.10,2013-10-28 04:52:00,